Regional Weather Roundup
Issued by NWS

Home | Current Version | Previous Version | Text Only | Print | Product List | Glossary On
Versions: 1 2 3 4 5 6 7 8 9 10 11 12 13 14 15 16 17 18 19 20 21 22 23 24 25 26 27 28 29 30 31 32 33 34 35 36 37 38 39 40 41 42 43 44 45 46 47 48 49 50
000
ASUS46 KSTO 271009
RWRCA

NORTHERN AND CENTRAL CA REGIONAL WEATHER ROUNDUP
NATIONAL WEATHER SERVICE SACRAMENTO CA
200 AM PST MON FEB 27 2017

NOTE: FAIR INDICATES FEW OR NO CLOUDS BELOW 12,000 FEET WITH NO
SIGNIFICANT WEATHER AND/OR OBSTRUCTIONS TO VISIBILITY.

CAZ001-003-271100-
NORTHWEST AREA

CITY           SKY/WX    TMP DP  RH WIND       PRES   REMARKS
CRESCENT CITY  CLOUDY    42  38  85 S10       29.91R
ARCATA         NOT AVBL
SHELTER COVE   NOT AVBL
UKIAH          CLEAR     35  34  96 CALM      29.93S
$$

CAZ006-505>513-271100-
BAY AREA

CITY           SKY/WX    TMP DP  RH WIND       PRES   REMARKS
SANTA ROSA     CLEAR     36  36 100 NW5       29.92S WCI  32
SAN RAFAEL     N/A       45  MM  MM MISG
NAPA           CLOUDY    43  39  86 W6        29.92S
CONCORD        CLOUDY    45  42  89 S8        29.93S
OAKLAND CITY   N/A      MM  MM  MM MISG
OAKLAND        CLOUDY    47  45  93 CALM      29.94S
SAN FRAN CITY  N/A       45  MM  89 MISG
SAN FRAN ARPT  LGT RAIN  47  41  80 W5        29.93S
LIVERMORE      CLOUDY    43  38  82 NW5       29.92S
HAYWARD        RAIN      47  40  76 N7        29.94S
REDWOOD CITY   N/A       MM  MM  MM MISG
MOFFETT ARPT   LGT RAIN  48  43  82 S3        29.94F
SAN JOSE ARPT  CLOUDY    47  42  83 E3        29.94S
$$
CAZ034-037-514>518-271100-
CENTRAL COAST

CITY           SKY/WX    TMP DP  RH WIND       PRES   REMARKS
WATSONVILLE    MOCLDY    42  41  96 W3        29.94S
SALINAS        CLOUDY    46  42  86 CALM      29.93F
MONTEREY       MOCLDY    45  44  97 SE3       29.94S
PT PIEDRAS BLS NOT AVBL
SAN LUIS OBISP CLOUDY    50  44  80 CALM      29.92F
SANTA MARIA    CLOUDY    48  44  86 CALM      29.92F
$$
CAZ015-016-271100-
NORTHERN SACRAMENTO VALLEY

CITY           SKY/WX    TMP DP  RH WIND       PRES   REMARKS
REDDING        MOCLDY    36  30  79 NE3       29.86R
RED BLUFF      CLEAR     36  28  73 CALM      29.89R
OROVILLE       MOCLDY    43  37  79 SE8       29.89R
$$
CAZ016>018-271100-
SOUTHERN SACRAMENTO VALLEY

CITY           SKY/WX    TMP DP  RH WIND       PRES   REMARKS
AUBURN         MOCLDY    39  37  93 S6        29.87F WCI  35
BEALE AFB      CLOUDY    43  38  84 SE10      29.87S
LINCOLN        FAIR      41  34  75 S6        29.89R
MARYSVILLE     CLOUDY    44  37  76 E6        29.89S
SAC INTL ARPT  PTCLDY    42  39  89 S9        29.89S
MATHER AIRPORT NOT AVBL
DOWNTOWN SAC   N/A       47  MM  MM MISG
SAC EXEC ARPT  MOCLDY    45  43  93 SW8       29.90S
VACAVILLE      PTCLDY    44  37  76 S7        29.90S
TRAVIS AFB     PTCLDY    43  41  95 SW14      29.88S
$$
CAZ019>021-271100-
SAN JOAQUIN VALLEY

CITY           SKY/WX    TMP DP  RH WIND       PRES   REMARKS
STOCKTON       CLOUDY    45  41  86 SW9       29.92S
MODESTO        MOCLDY    48  39  71 CALM      29.92S
MERCED         CLOUDY    48  41  76 N6        29.92S
LEMOORE        CLOUDY    47  40  76 W7        29.92S
FRESNO         CLOUDY    48  40  73 E5        29.92F
HANFORD        CLOUDY    43  42  97 S5        29.92F
PORTERVILLE    MOCLDY    47  43  86 CALM      29.94S
BAKERSFIELD    CLOUDY    50  42  74 N6        29.92S
$$
CAZ011-012-071-271100-
NORTHERN MOUNTAINS

CITY           SKY/WX    TMP DP  RH WIND       PRES   REMARKS
YREKA          MOCLDY    26  23  88 CALM      29.80S
MOUNT SHASTA   CLEAR     19  15  84 CALM      29.76R
ALTURAS        FOG       13  12  96 S3        29.72R VSB 1/4
$$
CAZ011-012-071-271100-
SIERRA NEVADA MTNS

CITY           SKY/WX    TMP DP  RH WIND       PRES   REMARKS
BLUE CANYON    LGT SNOW  24  24 100 SW6       29.75F FOG     WCI  17
TRUCKEE        LGT SNOW  23  19  86 SW10G17   29.69S WCI  12
TAHOE VLY ARPT LGT SNOW  24  20  84 S12       29.66S VSB 3/4 WCI  13
MAMMOTH LAKES  FAIR      28  14  55 SW31G48   29.63S WCI  12
$$




USA.gov is the U.S. government's official web portal to all federal, state and local government web resources and services.